Preview of NWS' New Version of Forecast
This preview is not operational and should not be used for support decisions.

Regional Weather Roundup (RWR)

Issued by National Weather Service (NWS)

                            
000
ASUS43 KDMX 181301
RWRIA 

WEATHER ROUNDUP FOR IOWA
NATIONAL WEATHER SERVICE DES MOINES IA
800 AM CDT WED SEP 18 2019

NOTE: "FAIR" INDICATES FEW OR NO CLOUDS BELOW 12,000 FEET WITH NO
SIGNIFICANT WEATHER AND/OR OBSTRUCTIONS TO VISIBILITY.

* - THESE STATIONS ARE NOT NWS STATIONS...THUS NOT UNDER NWS
QUALITY CONTROL.  THEY ALSO DO NOT REPORT WEATHER SUCH 
AS PRECIPITATION OR FOG.  

IAZ001>003-012>014-020>022-031>034-043>046-181400-
   NORTHWEST IOWA
  
CITY           SKY/WX    TMP DP  RH WIND       PRES   REMARKS
CARROLL *      MOCLDY    73  66  78 S8        29.93R                  
CHEROKEE *     CLEAR     72  69  92 S9        29.89R                  
DENISON *      MOCLDY    72  72 100 S7        29.94R                  
LE MARS *      PTCLDY    72  70  94 S9        29.87R                  
SHELDON *      CLEAR     70  70 100 S9G15     29.86R                  
SIOUX CITY     PTCLDY    72  67  84 SW12      29.88R                  
SPENCER        CLEAR     71  67  87 S16       29.89R                  
STORM LAKE *   PTCLDY    72  70  94 S12       29.88R                  
$$
 
IAZ055>058-069>071-079>083-090>094-181400-
   SOUTHWEST IOWA
  
CITY           SKY/WX    TMP DP  RH WIND       PRES   REMARKS
ATLANTIC *     CLEAR     72  68  88 S9        29.93R                  
AUDUBON *        N/A     72  66  83 S9        29.94S                  
CLARINDA *     CLEAR     70  70 100 S5        29.96S                  
COUNCIL BLFS * CLEAR     77  72  83 S13G23    29.90R                  
CRESTON *      SUNNY     70  70 100 S8        29.97R                  
HARLAN  *      MOCLDY    72  68  88 S7        29.93R                  
LAMONI         SUNNY     72  69  90 S8        29.98R FOG              
RED OAK *      CLEAR     72  68  88 S7        29.93S                  
SHENANDOAH *   PTCLDY    73  68  83 VRB7      29.92R                  
$$
 
IAZ047>049-059>061-072>074-084-181400-
   CENTRAL IOWA
  
CITY           SKY/WX    TMP DP  RH WIND       PRES   REMARKS
AMES           MOSUNNY   70  69  97 SE10      29.96R FOG              
ANKENY *       SUNNY     72  72 100 S8        29.96S                  
BOONE *        SUNNY     73  72  94 S10       29.95R                  
CHARITON *     SUNNY     72  72 100 S7        29.98R                  
DES MOINES     MOSUNNY   73  70  90 SE9       29.95S                  
GRINNELL*      SUNNY     69  66  91 SE9       30.02R                  
KNOXVILLE *    SUNNY     70  70 100 SE7       29.98S                  
MARSHALLTOWN   SUNNY     69  68  96 SE12      29.98R                  
NEWTON *       SUNNY     70  70 100 SE10      29.98S                  
PELLA *        SUNNY     71  66  86 SE5       30.00R                  
PERRY *        FAIR      72  69  92 SE9       29.94R FOG              
$$
 
IAZ004>006-015-016-023>025-035-036-181400-
   NORTH CENTRAL IOWA
  
CITY           SKY/WX    TMP DP  RH WIND       PRES   REMARKS
ALGONA *       CLOUDY    70  70 100 CALM      29.96R FOG              
CLARION *      CLOUDY    73  72  94 S13       29.95R                  
ESTHERVILLE    PTCLDY    67  65  93 S14       29.90F                  
FORT DODGE *   CLOUDY    73  69  87 S7        29.94R                  
MASON CITY     MOSUNNY   69  66  90 SE7       29.98R                  
FOREST CITY *  RAIN      70  70 100 CALM      29.98R                  
IOWA FALLS *     N/A     71  65  83 S14       29.99R                  
$$

IAZ007>011-017>019-026>030-037>042-050>054-066-181400-
   NORTHEAST IOWA
  
CITY           SKY/WX    TMP DP  RH WIND       PRES   REMARKS
CEDAR RAPIDS   FAIR      67  65  93 SE8G20    30.03R                  
CHARLES CITY * FAIR      70  68  94 SE9G15    30.00R                  
CLINTON *      FAIR      65  63  93 SE7       30.08R                  
DECORAH *      FAIR      66  66 100 VRB7      30.02S FOG              
DUBUQUE        FAIR      64  63  96 S8        30.07R FOG              
MONTICELLO *   FAIR      64  64 100 SE6       30.06R FOG              
OELWEIN *      SUNNY     66  66 100 SE12      30.03S FOG              
WATERLOO       FAIR      70  65  84 SE13      29.99R                  
$$
 
IAZ064-065-067-068-078-181400-
   EAST CENTRAL IOWA
  
CITY           SKY/WX    TMP DP  RH WIND       PRES   REMARKS
DAVENPORT      FAIR      67  62  84 SE8       30.08R                  
IOWA CITY      FAIR      68  65  90 SE6       30.05R                  
MUSCATINE *    FAIR      68  64  88 VRB5      30.05R                  
QUAD CITIES    FAIR      67  62  84 SE5       30.06R                  
$$
 
IAZ062-063-075>077-085>089-095>099-181400-
   SOUTHEAST IOWA
  
CITY           SKY/WX    TMP DP  RH WIND       PRES   REMARKS
BURLINGTON     SUNNY     69  64  84 S9        30.04S                  
FAIRFIELD *    SUNNY     68  68 100 SE9       30.02S                  
FORT MADISON * SUNNY     68  66  94 S6        30.04S                  
KEOKUK *       SUNNY     70  66  88 SE10      30.03S                  
OSKALOOSA *    FAIR      68  65  91 SE6       30.01R                  
OTTUMWA        SUNNY     71  66  84 S10       30.00R                  
WASHINGTON *     N/A    N/A N/A N/A MISG        N/A                   
$$

ABBREVIATIONS USED IN REMARKS
   TC - TEMPERATURES IN CELSIUS
  WCI - WIND CHILL INDEX
   HX - HEAT INDEX
  VSB - VISIBILITY  
$$